Flag for U.S.A. Weather past 2 weeks in New York, New York, U.S.A.

Now
81 °F

Sunny.


Feels Like: 83 °F
Forecast: 73 / 91 °F
Wind: No wind

Location: New York City - Central Park

Current Time: Sep 2, 2015 at 8:18:29 PM

Latest Report: Sep 2, 2015 at 7:51 PM


Visibility: 9 mi

Pressure: 29.89 "Hg

Humidity: 58%

Dew point: 65 °F

Location of New YorkLocation

Historic Weather in New York — Graph

°F

New York temperature yesterday

Maximum temperature yesterday: 89 °F (at 2:51 PM)
Minimum temperature yesterday: 76 °F (at 5:51 AM)
Average temperature yesterday: 81 °F

Past Weeks' High & Low Weather Summary

 TemperatureHumidityPressure
High91 °F (Aug 31, 2:51 PM)91% (Aug 21, 2:51 AM)30.22 "Hg (Aug 21, 2:51 AM)
Low64 °F (Aug 28, 5:51 AM)30% (Aug 26, 1:51 PM)29.80 "Hg (Aug 25, 4:51 PM)
Average78 °F57%30.01 "Hg
* Reported Aug 18 6:51 PM — Sep 2 6:51 PM, New York, Weather by CustomWeather, © 2015

Note: Actual official high and low records may vary slightly from our data, if they occured in-between our weather recording intervals... More about our weather records

Advertising

New York weather history for previous 24 hours

 ConditionsComfort  
Time TempWeatherWind HumidityBarometerVisibility
6:51 PM
Wed, Sep 2
83 °FSunny.No wind53%29.90 "Hg8 mi
5:51 PM84 °FSunny.3 mph51%29.90 "Hg8 mi
4:51 PM86 °FSunny.N/A48%29.90 "Hg8 mi
3:51 PM89 °FSunny.3 mph45%29.91 "Hg8 mi
2:51 PM89 °FSunny.8 mph48%29.93 "Hg7 mi
1:51 PM90 °FPassing clouds.5 mph42%29.95 "Hg7 mi
12:51 PM90 °FSunny.3 mph42%29.97 "Hg7 mi
11:51 AM87 °FSunny.3 mph50%29.99 "Hg6 mi
10:51 AM85 °FSunny.5 mph53%30.01 "Hg6 mi
9:51 AM82 °FSunny.3 mph58%30.02 "Hg6 mi
8:51 AM79 °FSunny.3 mph62%30.03 "Hg6 mi
7:51 AM78 °FSunny.No wind66%30.03 "Hg5 mi
6:51 AM75 °FClear.No wind71%30.02 "Hg6 mi
5:51 AM74 °FClear.No wind74%30.02 "Hg7 mi
4:51 AM75 °FClear.No wind71%30.02 "Hg7 mi
3:51 AM75 °FClear.No wind69%30.02 "Hg8 mi
2:51 AM76 °FClear.No wind67%30.03 "Hg8 mi
1:51 AM77 °FClear.No wind60%30.04 "Hg8 mi
12:51 AM77 °FClear.3 mph56%30.05 "Hg9 mi
11:51 PM
Tue, Sep 1
78 °FClear.No wind58%30.05 "Hg9 mi
10:51 PM78 °FClear.No wind60%30.05 "Hg9 mi
9:51 PM78 °FClear.3 mph60%30.04 "Hg9 mi
8:51 PM79 °FPassing clouds.3 mph60%30.04 "Hg9 mi
Weather by CustomWeather, © 2015

See weather overviewHow to use our weather pages